STARLINK-34276, 64263

Orbit data source: Space-Track

STARLINK-34276, 64263 is a payload satellite owned by SpaceX/Seattle (US) in LEO that was launched on Wed, 04 Jun 2025 UTC via an FALCON 9 launch vehicle from the Air Force Western Test Range (AFWTR). Payload-class satellites include a variety of spacecraft equipped with specific instruments for various scientific and technological missions. These include communications satellites like Starlink; space stations such as the ISS; scientific satellites like the Hubble; Earth observation satellites from companies like Planet Labs, Umbra, and HawkEye 360; GPS; miniature CubeSats for education and research; and military/defense satellites.

Loading next visibility...
Identifier
64263, 2025-120H
Orbit
LEO
Country
Flag of USUS
Related business
Manufacturer
SpaceX/Seattle
Mission
Operational Commercial Communications
Bus & Motor
STARLINK V2MO, Unknown motor
Mass
575 kg wet, ~530 kg dry
Launch date (UTC)
2025-06-04 (1 year ago)
Launch vehicle
FALCON 9
Launch site
Air Force Western Test Range (AFWTR)
Object type
Payload
Rocket body
Debris
Shape & HBR
Box + 2 Pan, 17.7 m
Radar Cross Section
36.964 m², Large (>1 m²)

Expand to show TLE details & history
Last TLE update: 22 hours ago

TLE from 22 hours ago
0 STARLINK-34276
1 64263U 25120H   26170.92323236  .00015853  00000-0  52118-3 0  9999
2 64263  53.1610   1.4678 0000888  85.2440 274.8663 15.31722602 59573
Epoch: 2026-06-19T22:09Z
TLE epoch observation values (Epoch: 2026-06-19T22:09:27.275Z)
Latitude
-0.00003°
Longitude
120.95889°
Altitude
471.521 km
Speed
7.632 km/s
True Right ascension
00h 05m 52s
True Declination
0° 00' 00"
Sunlit
Object was in daylight at epoch
Visualization orbit readout
Latitude
Unknown
Longitude
Unknown
Altitude
Unknown
Speed
Unknown
Apparent Right ascension
Unknown
Apparent Declination
Unknown
Sunlit
N/A
Visualization observer readout
Local Sidereal Time
07:11:55
Azimuth
Unknown
Elevation
Unknown
Doppler factor
Unknown
Orbital elements
Apogee altitude
471.537 km
Perigee altitude
470.321 km
Semi-major axis
6,849.066 km
Eccentricity
0.00009
Inclination
53.161°
RAAN
1.4678°
Arg. of periapsis
85.244°
True anomaly
274.85616°
Mean anomaly
274.8663°
Eccentric anomaly
274.86123°
Mean motion
3.82909 °/min
Orbital period
94.02 mins
BSTAR
0.00052118
Loading maneuver chart data...
Computing Atmospheric mass density...
Loading historical data...
Loading historical data...
Loading historical data...
Loading historical data...
Loading historical data...
Loading historical data...
Loading historical data...

Documentation

Showing up to 5 results
|